Simultaneous Nadir Overpasses (SNOs) Predictions

Prediction of SNOs between GOES-15 and LANDSAT-8 Satellite Orbit:

Table of predicted SNOs for the next 14.0 days since TLE Epoch: 1/8/2022
Index Date Time (GOES-15) GOES-15 Lat,Lon LANDSAT-8 Lat,Lon Distance(km) Time Diff (sec)
1 01/08/2022 06:54:53 0.03,-128.28 -0.37,-130.18 216.37 80
2 01/10/2022 06:40:02 0.04,-128.31 0.29,-127.23 122.97 80
3 01/10/2022 19:03:56 -0.03,-128.32 0.84,-132.38 461.56 80
4 01/12/2022 06:27:50 0.04,-128.33 0.89,-124.27 461.78 80
5 01/12/2022 18:51:46 -0.03,-128.35 0.18,-129.43 122.91 80
6 01/14/2022 18:36:54 -0.03,-128.36 -0.43,-126.47 215.18 80
7 01/15/2022 07:00:57 0.02,-128.36 -0.68,-131.66 375.35 80
8 01/17/2022 06:48:45 0.03,-128.37 -0.06,-128.70 38.03 80
9 01/19/2022 06:33:55 0.03,-128.38 0.61,-125.75 299.08 80
10 01/19/2022 18:57:49 -0.02,-128.39 0.52,-130.90 286.23 80
11 01/21/2022 18:42:57 -0.01,-128.39 -0.10,-127.94 50.53 80
